Date,TemperatureHighF,TemperatureAvgF,TemperatureLowF,DewpointHighF,DewpointAvgF,DewpointLowF,HumidityHigh,HumidityAvg,HumidityLow,PressureMaxIn,PressureMinIn,WindSpeedMaxMPH,WindSpeedAvgMPH,GustSpeedMaxMPH,PrecipitationSumIn
2013-6-1,79,60,39,52,46,36,91,63,26,30.27,30.03,6,2,11,0.00
2013-6-2,74,61,48,52,49,44,87,67,41,30.09,30.03,7,2,13,0.00
2013-6-3,76,59,41,54,47,38,90,67,38,30.11,30.03,7,2,13,0.00
2013-6-4,83,62,40,55,48,37,90,64,32,30.09,29.99,6,2,11,0.00
2013-6-5,85,67,47,59,51,44,91,61,26,30.09,29.99,7,2,12,0.00
2013-6-6,85,68,49,62,53,46,89,62,35,30.08,30.01,6,2,12,0.00
2013-6-7,84,67,49,56,50,41,89,60,23,30.14,30.06,7,2,10,0.00
2013-6-8,82,64,49,55,48,40,88,61,24,30.16,30.06,6,2,10,0.00
2013-6-9,75,61,44,53,47,41,88,63,33,30.09,29.96,7,2,16,0.00
2013-6-10,73,57,43,49,44,39,87,63,34,30.01,29.91,7,2,12,0.00
2013-6-11,65,56,50,46,43,40,75,61,43,30.17,30.01,4,1,8,0.00
2013-6-12,64,55,46,47,43,41,86,66,46,30.22,30.16,5,1,9,0.00
2013-6-13,63,53,44,52,45,41,88,75,57,30.34,30.22,4,1,7,0.23
2013-6-14,74,59,44,54,48,41,90,69,48,30.34,29.99,7,2,14,0.11
2013-6-15,81,63,42,56,48,39,90,63,29,30.06,29.95,6,2,10,0.00
2013-6-16,78,61,44,56,49,41,89,67,39,30.14,30.06,8,2,11,0.00
2013-6-17,80,63,45,56,48,41,88,63,35,30.14,29.98,10,2,15,0.00
2013-6-18,73,59,52,52,49,41,88,71,37,30.06,29.96,8,1,16,0.08
2013-6-19,66,55,50,52,48,46,90,77,52,30.14,29.99,6,1,13,0.14
2013-6-20,67,52,43,51,46,40,91,80,52,30.14,30.09,4,1,8,0.03
2013-6-21,74,73,72,49,48,44,45,41,34,30.16,30.12,5,3,8,0.00
2013-6-22,83,74,43,55,51,40,90,48,33,30.11,29.90,4,1,9,0.00
2013-6-23,75,64,55,60,55,52,89,75,52,29.91,29.67,4,1,7,0.36
2013-6-24,66,59,54,56,52,49,89,79,57,29.75,29.72,5,1,9,0.31
2013-6-25,70,60,54,59,55,51,91,84,60,29.91,29.72,6,1,17,1.00
2013-6-26,74,63,55,58,55,52,91,77,53,30.06,29.88,3,1,7,0.37
2013-6-27,85,69,56,61,57,52,88,69,42,30.17,30.04,7,1,11,0.01
2013-6-28,92,74,54,66,58,51,90,61,32,30.17,30.06,5,1,10,0.00
2013-6-29,89,74,54,63,56,50,89,58,34,30.14,29.99,6,1,10,0.00
2013-6-30,94,75,53,64,58,50,91,61,32,30.01,29.90,5,2,9,0.00